Regional Weather Roundup
Issued by NWS Sterling, VA

Home | Current Version | Previous Version | Text Only | Print | Product List | Glossary On
Versions: 1 2 3 4 5 6 7 8 9 10 11 12 13 14 15 16 17 18 19 20 21 22 23 24 25 26 27 28 29 30 31 32 33 34 35 36 37 38 39 40 41 42 43 44 45 46 47 48 49 50
000
ASUS41 KLWX 200911
RWRLWX

REGIONAL WEATHER ROUNDUP
NATIONAL WEATHER SERVICE BALTIMORE MD/WASHINGTON DC
500 AM EDT WED SEP 20 2017

Note: "FAIR" indicates few or no clouds below 12,000 feet
with no significant weather and/or obstructions to visibility.
 TC=TEMPERATURE CELSIUS

 * =Non NWS site. Station does not report precipitation (e.g. rain,
    snow, etc.), thunder, or fog.

DCZ001-MDZ009-015-VAZ040>042-051-053>054-201000-
WASHINGTON METRO

CITY           SKY/WX    TMP DP  RH WIND       PRES   REMARKS
WASHINGTON NAT PTCLDY    71  64  78 NW10      29.91F
DULLES         PTCLDY    63  63 100 N3        29.94S
ANDREWS AFB    PTCLDY    70  63  77 NW9       29.90S
FT BELVOIR     CLEAR     68  62  82 NW3       29.92R
QUANTICO       MOCLDY    68  65  90 NW10      29.93R
COLLEGE PARK*  CLOUDY    68  64  87 CALM      29.91S
LEESBURG*      CLEAR     68  64  88 N5        29.95S
MANASSAS*      CLEAR     59  59 100 CALM      29.94S
GAITHERSBURG*  CLOUDY    67  63  87 NW3       29.94S

$$

MDZ006>007-011-014-201000-
BALTIMORE METRO

CITY           SKY/WX    TMP DP  RH WIND       PRES   REMARKS
BWI AIRPORT    CLOUDY    71  65  81 NW5       29.89S
MD SCIENCE CTR   N/A     76  63  64 MISG      29.89S
MARTIN STATE   CLOUDY    72  64  78 NW9       29.90R
ANNAPOLIS      CLOUDY    76  69  79 NW6       29.88S
FORT MEADE*    CLOUDY    68  63  83 NW3       29.92F

$$

MDZ012-015-019>023-201000-
MARYLAND EASTERN SHORE

CITY           SKY/WX    TMP DP  RH WIND       PRES   REMARKS
OCEAN CITY     CLOUDY    69  67  93 NW12G17   29.81S
SALISBURY      CLOUDY    69  67  93 NW9       29.84S
CAMBRIDGE*     CLOUDY    73  66  78 NW8G15    29.87R
EASTON*        PTCLDY    72  66  81 N8        29.91R

$$

MDZ017>025-201000-
SOUTHERN MARYLAND

CITY           SKY/WX    TMP DP  RH WIND       PRES   REMARKS
PATUXENT RIVER CLEAR     71  67  87 NW10      29.87F
ST INIGOES     CLEAR     70  66  87 NW5       29.87S
LEONARDTOWN*   MOCLDY    68  63  83 W5        29.90S

$$

MDZ003>005-201000-
NORTH CENTRAL MARYLAND

CITY           SKY/WX    TMP DP  RH WIND       PRES   REMARKS
FREDERICK*     PTCLDY    63  63 100 CALM      29.97S FOG
HAGERSTOWN APT CLEAR     65  62  90 CALM      29.96S
WESTMINSTER*   CLOUDY    68  64  88 NW3       29.94S

$$

MDZ501>502-201000-
WESTERN MARYLAND

CITY           SKY/WX    TMP DP  RH WIND       PRES   REMARKS
OAKLAND*       CLEAR     59  57  94 SE3       30.04S
CUMBERLAND*    CLEAR     61  61 100 CALM      30.04R

$$

VAZ025>031-201000-
SHENANDOAH VALLEY

CITY           SKY/WX    TMP DP  RH WIND       PRES   REMARKS
WINCHESTER*    CLEAR     57  57 100 CALM      29.97S
FRONT ROYAL*   CLEAR     61  61 100 CALM      29.97R
LURAY*         PTCLDY    59  59 100 CALM      29.99S FOG
NEW MARKET*    PTCLDY    56  55  96 CALM      29.99S
STAUNTON*      CLOUDY    55  55  99 CALM      30.03R FOG
WAYNESBORO*    CLEAR     58  58 100 CALM      30.01S

$$

WVZ021-048>050-054>055-201000-
EASTERN WEST VIRGINIA PANHANDLE

CITY           SKY/WX    TMP DP  RH WIND       PRES   REMARKS
MARTINSBURG    CLEAR     58  56  93 CALM      29.96R FOG
PETERSBURG*    FOG       59  59  99 CALM      30.01S VSB 3/4

$$

VAZ036>039-050-201000-
CENTRAL FOOTHILLS

CITY           SKY/WX    TMP DP  RH WIND       PRES   REMARKS
CHARLOTTESVILL CLEAR     63  61  93 CALM      29.96R FOG
CULPEPER*      CLEAR     64  63  98 NE5       29.95F
ORANGE*        CLEAR     59  59 100 CALM      29.95S FOG
GORDONSVILLE*  CLEAR     60  60 100 CALM      29.95S
WARRENTON*     CLEAR     59  56  91 CALM      29.94S

$$

VAZ055>057-201000-
NORTH AND CENTRAL PIEDMONT

CITY           SKY/WX    TMP DP  RH WIND       PRES   REMARKS
FREDERICKSBRG* CLEAR     67  64  89 NW3       29.93R
STAFFORD*      CLEAR     62  62 100 CALM      29.97S

$$

NCZ024-NYZ072-PAZ021-071-VAZ022-071-201000-
OTHER REGIONAL OBSERVATIONS

CITY           SKY/WX    TMP DP  RH WIND       PRES   REMARKS
NEW YORK CITY  CLOUDY    71  63  75 VRB6G21   29.84R
PHILADELPHIA   PTCLDY    71  63  75 N13       29.84F
PITTSBURGH     CLOUDY    64  61  90 CALM      29.99S
ROANOKE        PTCLDY    67  64  90 NE5       30.01S
RICHMOND       CLEAR     68  63  84 NW6       29.92S
RALEIGH        CLEAR     64  64 100 CALM      29.97R

$$

ANZ530>537-201000-
MARINE OBSERVATIONS

STATION/POSITION TIME  TEMP    WIND        PRES
                       AIR SEA DIR/SP/G
                 (UTC) (F)     (DEG/KT/KT) (MB)
THOMAS PT LIGHT  0900   73 75  320/ 10/ 12   N/A
BALT KEY BRIDGE  0836   75     320/ 11/ 13 1011.8S
COVE POINT       0836   73     340/ 14/ 18 1012.2S
LEWISETTA        0836   73 75  340/  6/  9 1011.7S
SOLOMONS ISLAND  0836   72 75  320/  8/ 11 1011.3F
PINEY POINT      0836          340/ 13/ 14   N/A

$$




USA.gov is the U.S. government's official web portal to all federal, state and local government web resources and services.